AW757 Weather Reports


time (UTC)temp
F
wind
direction
speed
knots
gust
knots
rain 1hr
in
rain 24hr
in
rain mn
in
humidity
%
barometer
mb
20260506144604 54 331 0.0 2.6 0.00 0.00 0.00 86 1018.9
20260506144522 54 318 0.0 2.6 0.00 0.00 0.00 86 1019.3
20260506143055 52 0 0.0 0.0 0.00 0.00 0.00 87 1018.8
20260506143014 52 300 0.0 0.0 0.00 0.00 0.00 87 1019.2
20260506141551 50 0 0.0 0.0 0.00 0.00 0.00 88 1018.7
20260506141528 50 325 0.0 0.0 0.00 0.00 0.00 88 1019.1
20260506140105 48 0 0.0 0.0 0.00 0.00 0.00 88 1018.6
20260506140014 48 326 0.0 0.0 0.00 0.00 0.00 88 1018.9
20260506134554 48 0 0.0 0.0 0.00 0.00 0.00 88 1018.6
20260506134512 48 337 0.0 0.0 0.00 0.00 0.00 88 1018.9
20260506133121 47 0 0.0 0.0 0.00 0.00 0.00 88 1018.6
20260506133011 47 163 0.0 0.0 0.00 0.00 0.00 88 1019.0
20260506131551 46 0 0.0 0.0 0.00 0.00 0.00 88 1018.4
20260506131518 46 325 0.0 0.0 0.00 0.00 0.00 88 1018.6
20260506130133 46 0 0.0 1.7 0.00 0.00 0.00 88 1018.1
20260506130022 46 338 0.0 1.7 0.00 0.00 0.00 88 1018.4
20260506124554 47 325 0.9 2.6 0.00 0.00 0.00 88 1018.1
20260506124522 47 325 0.9 2.6 0.00 0.00 0.00 88 1018.4
20260506123049 47 342 0.9 1.7 0.00 0.00 0.00 88 1017.9
20260506123024 47 342 0.9 1.7 0.00 0.00 0.00 88 1018.3
20260506121556 47 328 0.9 1.7 0.00 0.00 0.00 88 1018.2
20260506121520 47 331 0.9 1.7 0.00 0.00 0.00 88 1018.5
20260506120103 47 333 0.9 2.6 0.00 0.00 0.00 87 1018.1
20260506120033 47 333 0.9 2.6 0.00 0.00 0.00 87 1018.4
20260506114554 47 348 0.0 1.7 0.00 0.00 0.00 87 1018.2
20260506114513 47 349 0.0 1.7 0.00 0.00 0.00 87 1018.5
20260506113055 47 345 0.9 1.7 0.00 0.00 0.00 87 1018.2
20260506113012 47 345 0.9 1.7 0.00 0.00 0.00 87 1018.5
20260506111554 48 319 0.9 1.7 0.00 0.00 0.00 87 1018.3
20260506111524 48 333 0.9 1.7 0.00 0.00 0.00 87 1018.5
20260506110057 48 0 0.9 1.7 0.00 0.00 0.00 87 1018.2
20260506110029 48 51 0.0 1.7 0.00 0.00 0.00 87 1018.3
20260506104600 48 336 0.9 1.7 0.00 0.00 0.00 87 1018.3
20260506104536 48 337 0.0 1.7 0.00 0.00 0.00 87 1018.3
20260506103057 49 38 0.0 1.7 0.00 0.00 0.00 87 1018.2
20260506103037 49 38 0.0 1.7 0.00 0.00 0.00 87 1018.3
20260506101547 49 34 0.0 1.7 0.00 0.00 0.00 87 1018.2
20260506101522 49 27 0.0 1.7 0.00 0.00 0.00 87 1018.3
20260506100258 49 346 0.9 1.7 0.00 0.00 0.00 87 1018.0
20260506100021 49 346 0.9 1.7 0.00 0.00 0.00 87 1018.2
20260506094550 49 335 0.9 1.7 0.00 0.00 0.00 86 1018.2
20260506094516 49 335 0.0 1.7 0.00 0.00 0.00 86 1018.2
20260506093050 49 0 0.9 1.7 0.00 0.00 0.00 86 1018.2
20260506093027 49 54 0.9 1.7 0.00 0.00 0.00 86 1018.2
20260506091549 50 0 0.0 1.7 0.00 0.00 0.00 86 1018.3
20260506091528 49 341 0.0 1.7 0.00 0.00 0.00 86 1018.3
20260506090048 50 344 0.9 1.7 0.00 0.00 0.00 86 1018.4
20260506090025 50 352 0.9 1.7 0.00 0.00 0.00 86 1018.4
20260506084553 50 0 0.0 2.6 0.00 0.00 0.00 86 1018.5
20260506084534 50 346 0.0 2.6 0.00 0.00 0.00 86 1018.5
20260506083054 51 0 0.0 0.0 0.00 0.00 0.00 86 1018.6
20260506083006 51 346 0.0 0.0 0.00 0.00 0.00 86 1018.5
20260506081603 51 0 0.0 1.7 0.00 0.00 0.00 85 1018.6
20260506081503 51 340 0.0 1.7 0.00 0.00 0.00 85 1018.5
20260506073050 52 0 0.0 1.7 0.00 0.00 0.00 84 1018.4
20260506073018 52 342 0.0 1.7 0.00 0.00 0.00 84 1018.3
20260506071551 53 343 0.9 2.6 0.00 0.00 0.00 84 1018.4
20260506071521 53 346 0.9 2.6 0.00 0.00 0.00 84 1018.3
20260506061549 54 313 0.9 2.6 0.00 0.00 0.00 83 1018.0
20260506061504 54 313 0.9 2.6 0.00 0.00 0.00 83 1018.0
20260506044556 55 0 0.9 3.5 0.00 0.00 0.00 81 1017.3
20260506044514 55 317 0.9 3.5 0.00 0.00 0.00 81 1017.5
20260506043046 55 313 0.0 2.6 0.00 0.00 0.00 80 1017.2
20260506043008 55 325 0.0 2.6 0.00 0.00 0.00 80 1017.5
20260506041550 56 315 0.9 4.3 0.00 0.00 0.00 80 1017.1
20260506041504 56 295 0.0 4.3 0.00 0.00 0.00 80 1017.2
20260506040051 56 319 0.9 7.0 0.00 0.00 0.00 79 1016.8
20260506040017 56 98 0.9 6.1 0.00 0.00 0.00 79 1016.9
20260506034610 56 13 0.9 6.1 0.00 0.00 0.00 78 1016.6
20260506034512 56 272 0.9 5.2 0.00 0.00 0.00 78 1016.8
20260506033051 56 233 0.9 6.1 0.00 0.00 0.00 77 1016.4
20260506033017 56 315 0.9 6.1 0.00 0.00 0.00 77 1016.6
20260506031552 57 271 1.7 7.0 0.00 0.00 0.00 77 1016.2
20260506031516 57 315 1.7 7.0 0.00 0.00 0.00 77 1016.2
20260506030052 57 300 2.6 10.4 0.00 0.00 0.00 75 1015.9
20260506030015 57 302 2.6 10.4 0.00 0.00 0.00 75 1016.0
20260506024553 58 319 4.3 9.6 0.00 0.00 0.00 74 1015.7
20260506024512 58 273 4.3 9.6 0.00 0.00 0.00 73 1015.8
20260506023056 58 314 3.5 8.7 0.00 0.00 0.00 72 1015.5
20260506023010 59 258 4.3 8.7 0.00 0.00 0.00 72 1015.7
20260506021552 59 295 2.6 10.4 0.00 0.00 0.00 70 1015.3
20260506021532 59 302 3.5 10.4 0.00 0.00 0.00 70 1015.6
20260506020056 60 320 6.1 9.6 0.00 0.00 0.00 66 1015.2
20260506020025 61 317 6.1 9.6 0.00 0.00 0.00 66 1015.5
20260506014552 62 298 4.3 10.4 0.00 0.00 0.00 62 1015.1
20260506014524 62 294 4.3 10.4 0.00 0.00 0.00 61 1015.4
20260506013103 62 352 2.6 9.6 0.00 0.00 0.00 62 1015.1
20260506013030 62 298 2.6 9.6 0.00 0.00 0.00 62 1015.3
20260506011552 63 323 3.5 9.6 0.00 0.00 0.00 61 1015.1
20260506011518 63 304 2.6 9.6 0.00 0.00 0.00 60 1015.3
20260506010112 64 319 4.3 11.3 0.00 0.00 0.00 59 1015.1
20260506010018 64 304 4.3 11.3 0.00 0.00 0.00 59 1015.3
20260506004551 64 305 3.5 11.3 0.00 0.00 0.00 59 1015.1
20260506004515 64 290 3.5 11.3 0.00 0.00 0.00 59 1015.3
20260506003049 65 303 3.5 9.6 0.00 0.00 0.00 57 1014.9
20260506003014 65 305 3.5 9.6 0.00 0.00 0.00 58 1015.1
20260506001601 65 316 5.2 10.4 0.00 0.00 0.00 58 1014.7
20260506001527 65 320 5.2 10.4 0.00 0.00 0.00 58 1015.0
20260506000053 66 278 2.6 8.7 0.00 0.00 0.00 57 1014.8
20260506000026 66 269 1.7 8.7 0.00 0.00 0.00 57 1015.0
20260505234548 66 303 1.7 8.7 0.00 0.00 0.00 59 1014.7
20260505234525 66 298 1.7 8.7 0.00 0.00 0.00 58 1015.0
20260505233103 65 275 2.6 8.7 0.00 0.00 0.00 63 1014.9
20260505233012 65 247 3.5 8.7 0.00 0.00 0.00 65 1015.1
20260505231551 63 232 5.2 13.0 0.00 0.00 0.00 66 1014.7
20260505231522 63 221 6.1 13.0 0.00 0.00 0.00 66 1015.0
20260505230054 64 161 6.1 13.0 0.00 0.00 0.00 64 1015.0
20260505230022 64 224 4.3 13.0 0.00 0.00 0.00 64 1015.2
20260505224549 65 190 4.3 9.6 0.00 0.00 0.00 62 1015.2
20260505224516 65 252 4.3 9.6 0.00 0.00 0.00 61 1015.3
20260505223056 65 191 4.3 13.0 0.00 0.00 0.00 61 1015.3
20260505223014 65 218 5.2 13.0 0.00 0.00 0.00 61 1015.4
20260505221552 66 209 5.2 10.4 0.00 0.00 0.00 58 1015.4
20260505221518 66 213 6.1 10.4 0.00 0.00 0.00 58 1015.3
20260505220049 66 326 3.5 8.7 0.00 0.00 0.00 55 1015.4
20260505220012 66 328 2.6 8.7 0.00 0.00 0.00 55 1015.4
20260505214601 65 242 2.6 7.0 0.00 0.00 0.00 58 1015.7
20260505214507 65 256 2.6 7.0 0.00 0.00 0.00 60 1015.7
20260505213048 62 199 7.0 14.8 0.00 0.00 0.00 65 1015.8
20260505213016 62 266 7.0 14.8 0.00 0.00 0.00 65 1016.0
20260505211549 62 310 6.1 13.9 0.00 0.00 0.00 64 1015.7
20260505211513 62 248 4.3 13.9 0.00 0.00 0.00 64 1015.9
20260505210053 61 245 6.1 15.6 0.00 0.00 0.00 65 1015.7
20260505210014 61 283 6.1 15.6 0.00 0.00 0.00 65 1016.0
20260505204556 62 217 6.1 16.5 0.00 0.00 0.00 63 1015.9
20260505204513 62 194 6.1 16.5 0.00 0.00 0.00 63 1015.9
20260505203054 65 223 5.2 12.2 0.00 0.00 0.00 60 1015.9
20260505203017 64 242 4.3 12.2 0.00 0.00 0.00 60 1016.0
20260505201557 62 229 5.2 14.8 0.00 0.00 0.00 63 1016.0
20260505201527 62 225 6.1 14.8 0.00 0.00 0.00 63 1016.0
20260505200050 62 263 2.6 14.8 0.00 0.00 0.00 63 1016.0
20260505200012 62 252 3.5 14.8 0.00 0.00 0.00 63 1016.0
20260505194552 62 209 5.2 14.8 0.00 0.00 0.00 62 1016.0
20260505194507 62 241 4.3 14.8 0.00 0.00 0.00 63 1016.1
20260505193054 63 198 7.0 13.0 0.00 0.00 0.00 63 1016.0
20260505193013 63 205 6.1 13.0 0.00 0.00 0.00 63 1016.0
20260505191642 64 237 5.2 12.2 0.00 0.00 0.00 62 1015.9
20260505191514 64 226 5.2 12.2 0.00 0.00 0.00 62 1016.0
20260505190101 65 248 5.2 10.4 0.00 0.00 0.00 61 1016.0
20260505190012 65 184 4.3 10.4 0.00 0.00 0.00 61 1016.2
20260505184604 64 135 5.2 10.4 0.00 0.00 0.00 63 1015.8
20260505184515 64 246 5.2 10.4 0.00 0.00 0.00 63 1016.0
20260505183114 63 225 4.3 9.6 0.00 0.00 0.00 65 1016.0
20260505183018 63 149 3.5 9.6 0.00 0.00 0.00 65 1016.0
20260505181557 63 217 4.3 10.4 0.00 0.00 0.00 64 1015.9
20260505181510 63 189 4.3 10.4 0.00 0.00 0.00 64 1016.0
20260505180058 63 247 4.3 10.4 0.00 0.00 0.00 64 1015.8
20260505180018 63 213 4.3 10.4 0.00 0.00 0.00 64 1015.9
20260505174552 63 204 5.2 9.6 0.00 0.00 0.00 64 1015.8
20260505174512 63 202 6.1 9.6 0.00 0.00 0.00 64 1015.8
20260505173053 63 213 3.5 11.3 0.00 0.00 0.00 66 1015.5
20260505173015 63 205 1.7 11.3 0.00 0.00 0.00 66 1015.7
20260505171558 63 198 4.3 7.8 0.00 0.00 0.00 65 1015.4
20260505171516 63 234 3.5 7.8 0.00 0.00 0.00 65 1015.6
20260505170049 62 259 1.7 7.0 0.00 0.00 0.00 66 1015.6
20260505170019 62 224 1.7 7.0 0.00 0.00 0.00 66 1015.8
20260505164551 61 333 2.6 8.7 0.00 0.00 0.00 63 1015.7
20260505164515 61 219 3.5 8.7 0.00 0.00 0.00 63 1015.9
20260505163046 62 0 0.9 7.0 0.00 0.00 0.00 66 1015.7
20260505163021 62 16 0.9 7.0 0.00 0.00 0.00 65 1015.8
20260505161603 60 315 1.7 4.3 0.00 0.00 0.00 66 1015.6
20260505161517 60 300 1.7 4.3 0.00 0.00 0.00 66 1015.7
20260505153054 58 223 1.7 5.2 0.00 0.00 0.00 74 1015.4
20260505153021 58 275 1.7 4.3 0.00 0.00 0.00 74 1015.5
20260505151550 57 262 0.0 1.7 0.00 0.00 0.00 78 1015.4
20260505151520 57 234 0.9 1.7 0.00 0.00 0.00 78 1015.4